Location: Pallagorio
(39.3000°N, 16.9000°E)
Time: 18:51:25
(UTC+00:00)

USA 229 DEB - Pass Details

Date: 24 January 2021
Orbit: 965 x 1247 km, 63.4° (Epoch: 03 March)

Event Time Altitude Azimuth Distance (km) Brightness Sun altitude
Rises 18:34:57 0° 324° (NW) 3,994 7.1 -29.2°
Reaches altitude 10° 18:37:36 10° 323° (NW) 3,068 6.5 -29.7°
Maximum altitude 18:44:58 74° 240° (WSW) 1,251 4.0 -31.1°
Enters shadow 18:47:27 47° 169° (SSE) 1,577 4.4 -31.6°
